This demonstration page uses our WeatherBlox Daily Observations layout. Learn more.

Left ArrowRight Arrow

38.89511, -77.03637

Hourly Observations for August 5, 2021

Temp ( °F °C ) Dew Point ( °F °C ) Humidity (%) Winds ( mph kmh ) Pressure ( in mb ) Visibility ( mi km ) Precip ( " mm )
12:52 am 00:52 Mostly Cloudy 72 22.2 60 15.6 66 66 N N/A 30.11 1020 10 16 N/A
1:52 am 01:52 Mostly Cloudy 70 21.1 61 16.1 73 73 NE 3 6 30.11 1020 10 16 N/A
2:52 am 02:52 Mostly Cloudy 67 19.4 60 15.6 79 79 N 6 9 30.10 1019 10 16 N/A
3:52 am 03:52 Mostly Cloudy 67 19.4 59 15 76 76 NNW 5 7 30.10 1019 10 16 N/A
4:52 am 04:52 Partly Cloudy 67 19.4 59 15 76 76 NNW 5 7 30.09 1019 10 16 N/A
5:52 am 05:52 Mostly Clear 68 20 61 16.1 78 78 N N/A 30.10 1019 10 16 N/A
6:52 am 06:52 Mostly Sunny 67 19.4 60 15.6 79 79 N N/A 30.11 1020 10 16 N/A
7:52 am 07:52 Sunny 70 21.1 62 16.7 76 76 N N/A 30.13 1020 10 16 N/A
8:52 am 08:52 Sunny 74 23.3 60 15.6 62 62 N N/A 30.14 1021 10 16 N/A
9:52 am 09:52 Sunny 77 25 60 15.6 56 56 WSW 7 11 30.15 1021 10 16 N/A
10:52 am 10:52 Mostly Sunny 80 26.7 59 15 49 49 VRB 6 9 30.15 1021 10 16 N/A
11:52 am 11:52 Mostly Sunny 82 27.8 57 13.9 42 42 NE 6 9 30.14 1021 10 16 N/A
12:52 pm 12:52 Mostly Sunny 83 28.3 58 14.4 43 43 VRB 3 6 30.14 1021 10 16 N/A
1:52 pm 13:52 Mostly Sunny 85 29.4 57 13.9 39 39 N N/A 30.11 1020 10 16 N/A
2:52 pm 14:52 Mostly Sunny 85 29.4 58 14.4 40 40 VRB 6 9 30.10 1019 10 16 N/A
3:52 pm 15:52 Mostly Cloudy 87 30.6 58 14.4 37 37 ENE 5 7 30.09 1019 10 16 N/A
4:52 pm 16:52 Mostly Cloudy 85 29.4 59 15 42 42 S 7 11 30.08 1019 10 16 N/A
5:52 pm 17:52 Mostly Cloudy 86 30 60 15.6 42 42 S 7 11 30.09 1019 10 16 N/A
6:52 pm 18:52 Mostly Cloudy 85 29.4 59 15 42 42 WSW 10 17 30.09 1019 10 16 N/A
7:52 pm 19:52 Mostly Cloudy 82 27.8 60 15.6 47 47 S 8 13 30.10 1019 10 16 N/A
8:52 pm 20:52 Partly Cloudy 80 26.7 62 16.7 54 54 S 8 13 30.11 1020 10 16 N/A
9:52 pm 21:52 Partly Cloudy 78 25.6 64 17.8 62 62 SSW 8 13 30.13 1020 10 16 N/A
10:52 pm 22:52 Mostly Cloudy 76 24.4 64 17.8 67 67 S 7 11 30.14 1021 10 16 N/A
11:52 pm 23:52 Mostly Cloudy 75 23.9 66 18.9 74 74 S 9 15 30.15 1021 10 16 N/A

Powered by AerisWeather